, AK

(GMT )
Golovin

Weather History for PAGL - May, 2013

Change the Weather History Date:

Thursday, May 16, 2013

  Actual Average Record
Temperature  
Mean Temperature 22 °F -  
Max Temperature 28 °F - - ()
Min Temperature 15 °F - - ()
Degree Days  
Heating Degree Days 44    
Moisture  
Dew Point 13 °F    
Average Humidity 74    
Maximum Humidity 100    
Minimum Humidity 54    
Precipitation  
Precipitation 0.08 in - - ()
Sea Level Pressure  
Sea Level Pressure 29.55 in    
Wind  
Wind Speed 16 mph (West)    
Max Wind Speed 28 mph    
Max Gust Speed 33 mph    
Visibility 9 miles    
Events      
T = Trace of Precipitation, MM = Missing Value Source: NWS Daily Summary

Daily Weather History Graph

Daily Weather History Graph

Search for Another Location

Airport or City:

Trip Planner

Search our weather history database for the weather conditions in past years. The results will help you decide how hot, cold, wet, or windy it might be!

Date:

Astronomy

May. 16, 2013 Rise Set
Actual Time 5:27 AM AKDT 12:12 AM AKDT
Civil Twilight 3:22 AM AKDT 2:35 AM AKDT
Nautical Twilight Sun does not set Sun does not set
Astronomical Twilight Sun does not set Sun does not set
Moon 12:10 PM AKDT (5/16) 3:46 AM AKDT (5/16)
Length of Visible Light 23h 13m
Length of Day
18h 44m
Waxing Crescent, 37% of the Moon is Illuminated
May 16
Waxing Crescent
May 17
First Quarter
May 24
Full
May 31
Last Quarter
Jun 8
New

Hourly Weather History & Observations

Time (AKDT) Temp. Windchill Dew Point Humidity Pressure Visibility Wind Dir Wind Speed Gust Speed Precip Events Conditions
12:16 AM 26.6 °F 11.4 °F 24.8 °F 93% 29.44 in 1.5 mi South 25.3 mph 32.2 mph N/A   Overcast
12:36 AM 26.6 °F 11.4 °F 24.8 °F 93% 29.44 in 1.2 mi South 25.3 mph - N/A   Overcast
12:56 AM 26.6 °F 11.4 °F 24.8 °F 93% 29.43 in 2.0 mi South 25.3 mph 28.8 mph N/A   Overcast
1:16 AM 26.6 °F 11.1 °F 24.8 °F 93% 29.42 in 2.0 mi South 26.5 mph - N/A   Overcast
1:36 AM 26.6 °F 11.4 °F 24.8 °F 93% 29.42 in 2.0 mi South 25.3 mph 32.2 mph N/A   Overcast
1:56 AM 26.6 °F 11.1 °F 24.8 °F 93% 29.41 in 3.0 mi South 26.5 mph 32.2 mph N/A   Overcast
2:16 AM 26.6 °F 10.8 °F 24.8 °F 93% 29.40 in 3.0 mi South 27.6 mph 32.2 mph N/A   Overcast
2:36 AM 26.6 °F 11.4 °F 26.6 °F 100% 29.39 in 4.0 mi South 25.3 mph - N/A   Overcast
2:56 AM 26.6 °F 11.4 °F 26.6 °F 100% 29.38 in 4.0 mi South 25.3 mph - N/A   Overcast
3:16 AM 28.4 °F 13.5 °F 26.6 °F 93% 29.38 in 1.8 mi South 26.5 mph 32.2 mph N/A   Overcast
3:36 AM 28.4 °F 15.4 °F 26.6 °F 93% 29.38 in 2.0 mi South 19.6 mph 33.4 mph N/A   Overcast
3:56 AM 26.6 °F 14.3 °F 23.0 °F 86% 29.38 in 6.0 mi WSW 16.1 mph 25.3 mph N/A   Overcast
4:16 AM 24.8 °F 12.4 °F 23.0 °F 93% 29.39 in 10.0 mi WSW 15.0 mph 23.0 mph N/A   Mostly Cloudy
4:36 AM 24.8 °F 11.1 °F 21.2 °F 86% 29.39 in 10.0 mi WSW 18.4 mph 26.5 mph N/A   Overcast
4:56 AM 23.0 °F 8.3 °F 19.4 °F 86% 29.39 in 10.0 mi WSW 19.6 mph 26.5 mph N/A   Overcast
5:16 AM 21.2 °F 6.0 °F 17.6 °F 86% 29.40 in 10.0 mi WSW 19.6 mph 28.8 mph N/A   Overcast
5:36 AM 21.2 °F 6.4 °F 17.6 °F 86% 29.40 in 10.0 mi WSW 18.4 mph 29.9 mph N/A   Mostly Cloudy
5:56 AM 21.2 °F 7.8 °F 15.8 °F 80% 29.41 in 10.0 mi West 15.0 mph 27.6 mph N/A   Scattered Clouds
6:16 AM 19.4 °F 6.0 °F 14.0 °F 80% 29.43 in 10.0 mi West 13.8 mph 19.6 mph N/A   Clear
6:36 AM 17.6 °F 7.3 °F 12.2 °F 79% 29.45 in 10.0 mi WNW 8.1 mph - N/A   Scattered Clouds
6:56 AM 17.6 °F 5.0 °F 12.2 °F 79% 29.46 in 10.0 mi NNW 11.5 mph - N/A   Overcast
7:16 AM 17.6 °F 5.7 °F 12.2 °F 79% 29.47 in 10.0 mi NW 10.4 mph - 0.01 in   Overcast
7:36 AM 17.6 °F 6.4 °F 12.2 °F 79% 29.48 in 10.0 mi NW 9.2 mph - 0.01 in   Overcast
7:56 AM 17.6 °F 5.7 °F 12.2 °F 79% 29.49 in 10.0 mi NNW 10.4 mph - 0.01 in   Overcast
8:16 AM 17.6 °F 5.7 °F 12.2 °F 79% 29.50 in 10.0 mi NW 10.4 mph - N/A   Overcast
8:36 AM 17.6 °F 5.0 °F 10.4 °F 73% 29.51 in 10.0 mi NW 11.5 mph - N/A   Overcast
8:56 AM 17.6 °F 5.7 °F 10.4 °F 73% 29.52 in 10.0 mi NW 10.4 mph - N/A   Overcast
9:16 AM 15.8 °F 2.1 °F 10.4 °F 79% 29.53 in 10.0 mi NW 12.7 mph - N/A   Overcast
9:36 AM 15.8 °F 4.2 °F 10.4 °F 79% 29.54 in 10.0 mi NW 9.2 mph - N/A   Overcast
9:56 AM 15.8 °F 2.7 °F 8.6 °F 73% 29.54 in 10.0 mi NW 11.5 mph - N/A   Overcast
10:16 AM 15.8 °F 2.1 °F 8.6 °F 73% 29.55 in 10.0 mi NW 12.7 mph - N/A   Overcast
10:36 AM 17.6 °F 5.0 °F 8.6 °F 68% 29.56 in 10.0 mi NW 11.5 mph - N/A   Overcast
10:56 AM 17.6 °F 5.0 °F 8.6 °F 68% 29.56 in 10.0 mi NW 11.5 mph - N/A   Overcast
11:16 AM 17.6 °F 5.7 °F 6.8 °F 63% 29.57 in 10.0 mi NW 10.4 mph - N/A   Overcast
11:36 AM 17.6 °F 5.7 °F 8.6 °F 68% 29.57 in 10.0 mi NW 10.4 mph - N/A   Overcast
11:56 AM 17.6 °F 9.3 °F 8.6 °F 68% 29.58 in 10.0 mi WNW 5.8 mph - N/A   Overcast
12:16 PM 17.6 °F 9.3 °F 6.8 °F 63% 29.59 in 10.0 mi West 5.8 mph - N/A   Overcast
12:36 PM 19.4 °F 12.8 °F 8.6 °F 63% 29.60 in 10.0 mi West 4.6 mph - N/A   Overcast
12:56 PM 17.6 °F 10.7 °F 6.8 °F 63% 29.60 in 10.0 mi WNW 4.6 mph - N/A   Mostly Cloudy
1:16 PM 19.4 °F 12.8 °F 10.4 °F 68% 29.60 in 10.0 mi WNW 4.6 mph - 0.01 in   Overcast
1:36 PM 19.4 °F 10.4 °F 10.4 °F 68% 29.61 in 8.0 mi WNW 6.9 mph - 0.01 in   Overcast
1:56 PM 19.4 °F 11.5 °F 10.4 °F 68% 29.62 in 10.0 mi West 5.8 mph - 0.02 in   Mostly Cloudy
2:16 PM 21.2 °F 10.1 °F 10.4 °F 63% 29.62 in 10.0 mi West 10.4 mph - 0.03 in   Mostly Cloudy
2:36 PM 19.4 °F 9.5 °F 10.4 °F 68% 29.62 in 10.0 mi WNW 8.1 mph - 0.03 in   Overcast
2:56 PM 21.2 °F 11.7 °F 10.4 °F 63% 29.62 in 10.0 mi West 8.1 mph - 0.03 in   Overcast
3:16 PM 19.4 °F 7.9 °F 8.6 °F 63% 29.63 in 10.0 mi West 10.4 mph - N/A   Overcast
3:36 PM 21.2 °F 10.1 °F 10.4 °F 63% 29.63 in 10.0 mi West 10.4 mph 18.4 mph N/A   Mostly Cloudy
3:56 PM 21.2 °F 11.7 °F 6.8 °F 54% 29.63 in 10.0 mi WSW 8.1 mph 16.1 mph 0.01 in   Partly Cloudy
4:16 PM 19.4 °F 7.9 °F 8.6 °F 63% 29.64 in 10.0 mi West 10.4 mph 17.3 mph N/A   Clear
4:36 PM 19.4 °F 7.9 °F 6.8 °F 58% 29.64 in 10.0 mi West 10.4 mph 17.3 mph N/A   Clear
4:56 PM 19.4 °F 7.9 °F 8.6 °F 63% 29.65 in 10.0 mi West 10.4 mph - N/A   Mostly Cloudy
5:16 PM 19.4 °F 7.9 °F 6.8 °F 58% 29.64 in 10.0 mi West 10.4 mph - N/A   Overcast
5:36 PM 19.4 °F 8.6 °F 8.6 °F 63% 29.64 in 10.0 mi West 9.2 mph - N/A   Overcast
5:56 PM 19.4 °F 7.9 °F 8.6 °F 63% 29.64 in 10.0 mi West 10.4 mph - N/A   Mostly Cloudy
6:16 PM 19.4 °F 7.9 °F 8.6 °F 63% 29.64 in 10.0 mi West 10.4 mph - N/A   Partly Cloudy
6:36 PM 19.4 °F 7.2 °F 8.6 °F 63% 29.64 in 10.0 mi West 11.5 mph 16.1 mph N/A   Clear
6:56 PM 17.6 °F 4.3 °F 8.6 °F 68% 29.64 in 10.0 mi West 12.7 mph 17.3 mph N/A   Mostly Cloudy
7:16 PM 19.4 °F 8.6 °F 8.6 °F 63% 29.65 in 10.0 mi West 9.2 mph 16.1 mph N/A   Overcast
7:36 PM 19.4 °F 7.9 °F 8.6 °F 63% 29.65 in 10.0 mi West 10.4 mph 17.3 mph N/A   Overcast
7:56 PM 19.4 °F 10.4 °F 8.6 °F 63% 29.65 in 10.0 mi West 6.9 mph - N/A   Overcast
8:16 PM 19.4 °F 10.4 °F 8.6 °F 63% 29.65 in 10.0 mi West 6.9 mph - N/A   Overcast
8:36 PM 17.6 °F 7.3 °F 8.6 °F 68% 29.66 in 10.0 mi West 8.1 mph - N/A   Overcast
8:56 PM 17.6 °F 8.2 °F 10.4 °F 73% 29.67 in 10.0 mi West 6.9 mph - N/A   Overcast
9:16 PM 17.6 °F 8.2 °F 8.6 °F 68% 29.67 in 10.0 mi WNW 6.9 mph - N/A   Overcast
9:36 PM 17.6 °F 9.3 °F 8.6 °F 68% 29.67 in 10.0 mi West 5.8 mph - N/A   Overcast
9:56 PM 17.6 °F 10.7 °F 6.8 °F 63% 29.68 in 10.0 mi West 4.6 mph - N/A   Overcast
10:16 PM 17.6 °F 9.3 °F 8.6 °F 68% 29.68 in 10.0 mi WNW 5.8 mph - N/A   Overcast
10:36 PM 17.6 °F 9.3 °F 6.8 °F 63% 29.69 in 10.0 mi West 5.8 mph - 0.01 in   Scattered Clouds
10:56 PM 17.6 °F 10.7 °F 6.8 °F 63% 29.69 in 10.0 mi West 4.6 mph - 0.01 in   Clear
11:16 PM 15.8 °F 7.2 °F 6.8 °F 68% 29.69 in 10.0 mi WNW 5.8 mph - N/A   Partly Cloudy
11:36 PM 15.8 °F 10.2 °F 8.6 °F 73% 29.70 in 10.0 mi NNW 3.5 mph - N/A   Mostly Cloudy
11:56 PM 15.8 °F 8.6 °F 8.6 °F 73% 29.70 in 10.0 mi WNW 4.6 mph - N/A   Overcast